Location: Stoke Bliss
(52.2667°N, 2.5167°W)
Time: 01:53:08
(UTC+00:00)

Cosmos 1777 Rocket - Pass Details

Date: 03 March 2021
Orbit: 759 x 775 km, 74.0° (Epoch: 11 April)

Event Time Altitude Azimuth Distance (km) Brightness Sun altitude
Rises 20:07:30 0° 332° (NNW) 3,252 7.9 -21.1°
Reaches altitude 10° 20:09:55 10° 329° (NNW) 2,319 7.1 -21.4°
Maximum altitude 20:15:05 60° 251° (WSW) 880 4.5 -22.2°
Enters shadow 20:18:21 22° 178° (S) 1,619 5.5 -22.7°
